Flag for Canada Weather past 2 weeks in Edmundston, New Brunswick, Canada

Now
29 °F

Chilly.


Feels Like: 23 °F
Forecast: 16 / 26 °F
Wind: 6 mph from Northwest

Location: St Leonard

Current Time: Mar 28, 2015 at 1:16:36 PM

Latest Report: Mar 28, 2015 at 12:00 PM


Visibility: N/A

Pressure: 29.91 "Hg

Humidity: 50%

Dew point: 13 °F

Location of EdmundstonLocation

Historic Weather in Edmundston — Graph

°F

Edmundston temperature yesterday

Maximum temperature yesterday: 37 °F (at 4:00 PM)
Minimum temperature yesterday: 26 °F (at 11:00 PM)
Average temperature yesterday: 32 °F

Past Weeks' High & Low Weather Summary

 TemperatureHumidityPressure
High43 °F (Mar 26, 3:00 PM)99% (Mar 22, 1:00 AM)30.45 "Hg (Mar 22, 1:00 AM)
Low-6 °F (Mar 14, 7:00 AM)19% (Mar 16, 3:00 PM)29.34 "Hg (Mar 17, 6:00 PM)
Average20 °F68%29.90 "Hg
* Reported Mar 13 12:00 Noon — Mar 28 12:00 Noon, Edmundston, Weather by CustomWeather, © 2015

Note: Actual official high and low records may vary slightly from our data, if they occured in-between our weather recording intervals... More about our weather records

Advertising

Edmundston weather history for previous 24 hours

 ConditionsComfort  
Time TempWeatherWind HumidityBarometerVisibility
12:00 PM
Sat, Mar 28
29 °FChilly.6 mph50%29.91 "HgN/A
11:00 AM27 °FChilly.2 mph54%29.93 "HgN/A
10:00 AM24 °FCold.5 mph59%29.93 "HgN/A
9:00 AM18 °FCold.3 mph66%29.93 "HgN/A
8:00 AM12 °FCold.1 mph82%29.91 "HgN/A
7:00 AM13 °FCold.3 mph81%29.90 "HgN/A
6:00 AM15 °FCold.3 mph86%29.88 "HgN/A
5:00 AM16 °FCold.3 mph78%29.86 "HgN/A
4:00 AM17 °FCold.1 mph77%29.86 "HgN/A
3:00 AM20 °FCold.3 mph72%29.86 "HgN/A
2:00 AM21 °FCold.3 mph71%29.84 "HgN/A
1:00 AM22 °FCold.1 mph69%29.83 "HgN/A
12:00 AM24 °FCold.5 mph65%29.83 "HgN/A
11:00 PM
Fri, Mar 27
26 °FChilly.7 mph61%29.80 "HgN/A
10:00 PM28 °FChilly.6 mph58%29.79 "HgN/A
9:00 PM29 °FChilly.5 mph53%29.75 "HgN/A
8:00 PM32 °FChilly.6 mph47%29.74 "HgN/A
7:00 PM33 °FChilly.9 mph54%29.72 "HgN/A
6:00 PM37 °FChilly.7 mph50%29.70 "HgN/A
5:00 PM36 °FChilly.7 mph55%29.67 "HgN/A
4:00 PM37 °FChilly.7 mph55%29.67 "HgN/A
3:00 PM37 °FChilly.3 mph60%29.67 "HgN/A
2:00 PM31 °FChilly.5 mph78%29.68 "HgN/A
1:00 PM31 °FChilly.5 mph87%29.70 "HgN/A
Weather by CustomWeather, © 2015

See weather overviewHow to use our weather pages